This is the latest recevied weather packets stored in our database for station/object K6CQU-13. If no packets are shown the sender has not sent any weather packets the latest 10 day(s).
| Time | Temp. | Humidity | Pressure | Rain* | Wind** | Luminosity | Snow |
|---|---|---|---|---|---|---|---|
| 1777926017 | 17.22° C | 61% | 1014.9 hPa | 0 mm | - | 357 W/m² | - |
| 1777925717 | 17.22° C | 61% | 1014.8 hPa | 0 mm | - | 395 W/m² | - |
| 1777925417 | 17.22° C | 62% | 1014.9 hPa | 0 mm | - | 450 W/m² | - |
| 1777925117 | 17.22° C | 63% | 1014.9 hPa | 0 mm | - | 485 W/m² | - |
| 1777924817 | 16.67° C | 64% | 1014.9 hPa | 0 mm | - | 436 W/m² | - |
| 1777924517 | 16.67° C | 64% | 1014.9 hPa | 0 mm | - | 386 W/m² | - |
| 1777924217 | 16.67° C | 63% | 1015.1 hPa | 0 mm | - | 315 W/m² | - |
| 1777923917 | 16.67° C | 63% | 1015.2 hPa | 0 mm | - | 313 W/m² | - |
| 1777923617 | 16.67° C | 63% | 1015.1 hPa | 0 mm | - | 381 W/m² | - |
| 1777923317 | 16.67° C | 64% | 1015.1 hPa | 0 mm | - | 325 W/m² | - |
| 1777923016 | 16.67° C | 64% | 1015.1 hPa | 0 mm | - | 285 W/m² | - |
| 1777922717 | 16.67° C | 64% | 1015.2 hPa | 0 mm | - | 277 W/m² | - |
| 1777922417 | 16.67° C | 63% | 1015.1 hPa | 0 mm | - | 271 W/m² | - |
| 1777922116 | 16.67° C | 64% | 1015 hPa | 0 mm | - | 255 W/m² | - |
| 1777921817 | 16.67° C | 64% | 1015.1 hPa | 0 mm | - | 259 W/m² | - |
| 1777921517 | 16.67° C | 63% | 1015.2 hPa | 0 mm | - | 311 W/m² | - |
| 1777921217 | 16.67° C | 63% | 1015.1 hPa | 0 mm | - | 365 W/m² | - |
| 1777920917 | 17.22° C | 62% | 1015.2 hPa | 0 mm | - | 428 W/m² | - |
| 1777920616 | 17.22° C | 63% | 1015.1 hPa | 0 mm | - | 394 W/m² | - |
| 1777920317 | 17.22° C | 65% | 1015.1 hPa | 0 mm | - | 408 W/m² | - |
| 1777920016 | 17.22° C | 65% | 1015.1 hPa | 0 mm | - | 445 W/m² | - |
| 1777919717 | 17.22° C | 63% | 1015.1 hPa | 0 mm | - | 467 W/m² | - |
| 1777919417 | 17.22° C | 66% | 1015.2 hPa | 0 mm | - | 471 W/m² | - |
| 1777919116 | 17.22° C | 68% | 1015.1 hPa | 0 mm | - | 580 W/m² | - |
| 1777918816 | 16.67° C | 67% | 1015.2 hPa | 0 mm | - | 597 W/m² | - |
* Rain latest hour (hover to see other rain measurements)
** Current wind speed in m/s (hover to see current wind gust speed)